Location: *
(2.5500°S, 65.9667°W)
Time: 17:05:55
(UTC+00:00)

Tiangong - Visible Passes

Search period start: 19 January 2022 00:00
Search period end: 29 January 2022 00:00
Orbit: 383 x 386 km, 41.5° (Epoch: 19 January)

Date Brightness Start Highest point End Pass type
(mag) Time Alt. Az. Time Alt. Az. Time Alt. Az.
20 Jan 3.5 23:22:25 10° W 23:24:40 18° NW 23:26:54 10° N visible
22 Jan 2.0 09:53:11 10° NNW 09:56:11 43° NE 09:59:13 10° ESE visible
23 Jan 3.5 08:56:26 16° NE 08:56:34 16° NE 08:58:39 10° E visible
24 Jan 1.2 09:32:18 30° WNW 09:33:35 57° SW 09:36:42 10° SE visible
25 Jan 3.9 08:35:52 19° ESE 08:35:52 19° ESE 08:36:57 10° ESE visible
26 Jan 3.1 09:11:35 19° SSW 09:11:35 19° SSW 09:13:19 10° S visible
